Location: Unspecified
(40.7945°N, 111.1337°W)
Time: 10:22:22
(UTC-06:00)

Okean 3 - Pass Details

Date: 27 March 2019
Orbit: 576 x 602 km, 82.5° (Epoch: 25 April)

Event Time Altitude Azimuth Distance (km) Brightness Sun altitude
Exits shadow 06:12:19 13° 219° (SW) 1,737 5.4 -12.8°
Maximum altitude 06:15:44 36° 283° (WNW) 956 4.1 -12.2°
Drops below altitude 10° 06:19:44 10° 351° (N) 1,950 6.2 -11.5°
Sets 06:22:06 0° 360° (N) 2,856 7.1 -11.0°
